Total_Precipitation_Accumulation
0.00 0.01 0.02 0.03 0.05 0.03 0.01 0.00 0.02 0.02 0.03 0.01 0.00 0.00 0.00 0.00 0.00 0.00 0.00 0.00 0.00 0.00 0.01 0.01 0.01 0.01 0.02 0.02 0.03 0.03 0.04 0.04 0.05 0.05 0.06 0.06 0.06 0.06 0.06 0.07 0.08 0.11 0.14 0.15
0.00 0.01 0.01 0.03 0.06 0.02 0.00 0.00 0.00 0.00 0.00 0.00 0.00 0.01 0.02 0.02 0.01 0.02 0.02 0.03 0.04 0.04 0.05 0.04 0.04 0.04 0.04 0.04 0.04 0.05 0.05 0.04 0.04 0.05 0.05 0.06 0.06 0.06 0.06 0.08 0.11 0.16 0.19 0.19
0.00 0.01 0.01 0.06 0.04 0.01 0.00 0.00 0.00 0.01 0.02 0.02 0.03 0.05 0.08 0.11 0.12 0.13 0.12 0.10 0.07 0.05 0.03 0.02 0.01 0.01 0.01 0.01 0.01 0.02 0.02 0.03 0.04 0.05 0.05 0.06 0.06 0.07 0.09 0.12 0.16 0.21 0.24 0.26
0.00 0.00 0.04 0.04 0.00 0.00 0.00 0.00 0.01 0.03 0.05 0.09 0.12 0.17 0.23 0.27 0.21 0.11 0.06 0.03 0.01 0.00 0.00 0.00 0.00 0.00 0.01 0.01 0.01 0.02 0.02 0.03 0.04 0.06 0.07 0.08 0.11 0.13 0.17 0.20 0.22 0.26 0.29 0.31
0.00 0.00 0.02 0.01 0.01 0.01 0.02 0.02 0.04 0.10 0.15 0.18 0.18 0.13 0.09 0.06 0.03 0.01 0.01 0.00 0.00 0.00 0.00 0.00 0.01 0.01 0.01 0.01 0.01 0.02 0.04 0.07 0.09 0.11 0.13 0.16 0.19 0.23 0.28 0.31 0.30 0.31 0.32 0.37
0.00 0.00 0.01 0.01 0.02 0.06 0.07 0.12 0.13 0.12 0.09 0.05 0.02 0.01 0.00 0.00 0.00 0.00 0.00 0.00 0.00 0.00 0.00 0.01 0.01 0.01 0.02 0.02 0.03 0.04 0.05 0.08 0.11 0.17 0.22 0.26 0.30 0.34 0.37 0.40 0.39 0.38 0.36 0.40
0.00 0.00 0.00 0.01 0.01 0.03 0.05 0.07 0.03 0.01 0.01 0.00 0.00 0.00 0.00 0.00 0.00 0.00 0.00 0.00 0.00 0.00 0.00 0.01 0.02 0.03 0.04 0.05 0.06 0.06 0.07 0.09 0.12 0.18 0.28 0.31 0.36 0.41 0.45 0.47 0.48 0.48 0.45 0.45
0.00 0.01 0.01 0.01 0.00 0.00 0.00 0.00 0.00 0.00 0.00 0.00 0.00 0.00 0.00 0.00 0.00 0.00 0.00 0.00 0.00 0.00 0.00 0.01 0.03 0.06 0.08 0.09 0.09 0.10 0.12 0.14 0.15 0.21 0.29 0.32 0.42 0.46 0.51 0.55 0.57 0.58 0.59 0.57
0.00 0.01 0.00 0.00 0.00 0.00 0.00 0.00 0.00 0.00 0.00 0.00 0.00 0.00 0.00 0.00 0.00 0.00 0.00 0.00 0.00 0.00 0.01 0.02 0.04 0.08 0.12 0.12 0.13 0.15 0.17 0.17 0.21 0.25 0.37 0.51 0.55 0.53 0.57 0.61 0.61 0.62 0.66 0.69
0.00 0.00 0.00 0.00 0.00 0.00 0.00 0.00 0.00 0.00 0.00 0.00 0.00 0.00 0.00 0.00 0.00 0.00 0.00 0.00 0.00 0.01 0.02 0.04 0.05 0.08 0.12 0.15 0.19 0.22 0.22 0.21 0.23 0.29 0.42 0.66 0.79 0.73 0.67 0.67 0.66 0.67 0.65 0.67
0.00 0.00 0.00 0.00 0.00 0.00 0.00 0.00 0.00 0.00 0.00 0.00 0.00 0.00 0.00 0.00 0.00 0.00 0.00 0.01 0.01 0.03 0.05 0.06 0.07 0.09 0.13 0.18 0.25 0.28 0.26 0.24 0.25 0.32 0.46 0.67 0.84 0.83 0.70 0.68 0.66 0.65 0.65 0.65
0.00 0.00 0.00 0.00 0.00 0.00 0.00 0.00 0.00 0.00 0.00 0.00 0.00 0.00 0.00 0.00 0.00 0.01 0.01 0.03 0.04 0.06 0.08 0.10 0.12 0.15 0.17 0.22 0.29 0.35 0.33 0.29 0.30 0.35 0.45 0.65 0.88 0.95 0.75 0.58 0.55 0.53 0.48 0.46
0.00 0.00 0.00 0.00 0.00 0.00 0.00 0.00 0.00 0.00 0.00 0.00 0.00 0.00 0.00 0.00 0.01 0.02 0.04 0.07 0.11 0.14 0.16 0.19 0.21 0.21 0.21 0.27 0.34 0.38 0.38 0.35 0.34 0.36 0.41 0.54 0.78 1.02 1.06 0.80 0.58 0.49 0.38 0.28
0.00 0.00 0.00 0.00 0.00 0.00 0.00 0.00 0.00 0.00 0.00 0.00 0.00 0.00 0.00 0.01 0.02 0.04 0.09 0.15 0.21 0.25 0.26 0.27 0.26 0.24 0.25 0.32 0.35 0.36 0.36 0.33 0.31 0.32 0.34 0.43 0.65 0.92 1.12 1.09 0.91 0.65 0.37 0.21
0.00 0.00 0.00 0.00 0.00 0.00 0.00 0.00 0.00 0.00 0.00 0.00 0.00 0.00 0.01 0.02 0.05 0.09 0.15 0.26 0.36 0.37 0.34 0.32 0.29 0.27 0.29 0.34 0.35 0.33 0.32 0.29 0.26 0.27 0.29 0.34 0.51 0.77 0.98 1.06 1.01 0.89 0.59 0.25
0.00 0.00 0.00 0.00 0.00 0.00 0.00 0.00 0.00 0.00 0.00 0.00 0.00 0.01 0.01 0.04 0.08 0.13 0.21 0.37 0.54 0.55 0.46 0.39 0.34 0.32 0.33 0.35 0.34 0.29 0.28 0.22 0.18 0.19 0.23 0.27 0.38 0.61 0.87 1.02 0.97 0.91 0.72 0.36
0.00 0.00 0.00 0.00 0.00 0.00 0.00 0.00 0.00 0.00 0.00 0.00 0.01 0.02 0.04 0.09 0.15 0.22 0.34 0.44 0.51 0.49 0.45 0.43 0.38 0.35 0.34 0.35 0.34 0.29 0.26 0.21 0.14 0.14 0.22 0.28 0.34 0.52 0.76 0.94 0.89 0.79 0.65 0.32
0.00 0.00 0.00 0.00 0.00 0.00 0.00 0.00 0.00 0.00 0.01 0.02 0.05 0.05 0.08 0.17 0.28 0.45 0.57 0.61 0.55 0.43 0.37 0.39 0.36 0.31 0.30 0.27 0.26 0.24 0.23 0.23 0.20 0.21 0.26 0.28 0.33 0.50 0.71 0.84 0.79 0.70 0.57 0.30
0.00 0.00 0.00 0.00 0.00 0.00 0.00 0.00 0.00 0.01 0.02 0.06 0.08 0.07 0.09 0.17 0.31 0.50 0.61 0.73 0.77 0.62 0.43 0.32 0.29 0.25 0.23 0.19 0.19 0.20 0.20 0.21 0.21 0.23 0.26 0.24 0.34 0.50 0.64 0.69 0.64 0.56 0.43 0.27
0.00 0.00 0.00 0.00 0.00 0.00 0.00 0.00 0.00 0.01 0.04 0.09 0.09 0.07 0.09 0.15 0.31 0.51 0.63 0.74 0.79 0.72 0.52 0.35 0.24 0.18 0.14 0.11 0.13 0.17 0.19 0.22 0.24 0.25 0.26 0.32 0.40 0.52 0.56 0.53 0.46 0.38 0.30 0.23
0.00 0.00 0.00 0.00 0.00 0.00 0.00 0.00 0.00 0.02 0.07 0.09 0.07 0.06 0.09 0.16 0.27 0.48 0.77 0.93 0.81 0.67 0.52 0.40 0.26 0.16 0.11 0.10 0.10 0.13 0.16 0.19 0.24 0.29 0.31 0.35 0.42 0.46 0.46 0.38 0.28 0.21 0.18 0.17
0.00 0.00 0.00 0.00 0.00 0.00 0.00 0.00 0.00 0.03 0.05 0.06 0.05 0.06 0.11 0.18 0.28 0.40 0.58 0.86 0.93 0.84 0.59 0.40 0.27 0.16 0.12 0.11 0.10 0.11 0.13 0.14 0.19 0.23 0.26 0.28 0.32 0.34 0.32 0.24 0.16 0.11 0.10 0.12
0.00 0.00 0.00 0.00 0.00 0.00 0.00 0.00 0.00 0.01 0.02 0.04 0.05 0.07 0.11 0.19 0.32 0.55 0.66 0.66 0.75 0.85 0.62 0.40 0.31 0.21 0.13 0.11 0.12 0.12 0.12 0.15 0.22 0.24 0.20 0.19 0.19 0.21 0.20 0.14 0.10 0.07 0.07 0.09
0.00 0.00 0.00 0.00 0.00 0.00 0.00 0.00 0.00 0.01 0.01 0.01 0.02 0.03 0.07 0.16 0.23 0.37 0.54 0.62 0.64 0.69 0.52 0.36 0.28 0.21 0.16 0.14 0.15 0.17 0.22 0.28 0.29 0.22 0.16 0.14 0.13 0.12 0.13 0.11 0.07 0.06 0.07 0.09
0.00 0.00 0.00 0.01 0.01 0.01 0.01 0.01 0.01 0.01 0.01 0.01 0.02 0.02 0.03 0.08 0.18 0.29 0.38 0.46 0.58 0.65 0.52 0.38 0.29 0.26 0.22 0.20 0.23 0.31 0.36 0.31 0.25 0.19 0.15 0.12 0.11 0.10 0.09 0.08 0.08 0.07 0.08 0.08
0.01 0.01 0.01 0.01 0.01 0.01 0.01 0.01 0.02 0.02 0.02 0.02 0.02 0.03 0.03 0.04 0.08 0.15 0.24 0.30 0.41 0.53 0.47 0.33 0.21 0.20 0.21 0.25 0.29 0.32 0.30 0.25 0.20 0.18 0.17 0.15 0.13 0.11 0.09 0.08 0.08 0.07 0.06 0.05
0.02 0.02 0.02 0.02 0.02 0.03 0.03 0.03 0.04 0.04 0.05 0.05 0.05 0.06 0.07 0.08 0.08 0.10 0.14 0.19 0.25 0.29 0.27 0.21 0.12 0.11 0.12 0.14 0.17 0.19 0.21 0.22 0.21 0.21 0.20 0.18 0.17 0.15 0.11 0.08 0.07 0.07 0.05 0.04